CDT,Max TemperatureF,Mean TemperatureF,Min TemperatureF,Max Dew PointF,MeanDew PointF,Min DewpointF,Max Humidity, Mean Humidity, Min Humidity, Max Sea Level PressureIn, Mean Sea Level PressureIn, Min Sea Level PressureIn, Max VisibilityMiles, Mean VisibilityMiles, Min VisibilityMiles, Max Wind SpeedMPH, Mean Wind SpeedMPH, Max Gust SpeedMPH,PrecipitationIn, CloudCover, Events, WindDirDegrees
2012-9-1,73,58,44,52,45,39,93,63,33,30.27,30.22,30.15,10,10,10,8,4,,0.00,0,,68
2012-9-2,69,62,55,55,52,43,94,69,48,30.15,30.03,29.90,10,10,10,8,4,,0.00,0,,112
2012-9-3,80,66,53,61,52,39,88,62,23,29.94,29.91,29.87,10,10,10,9,3,,0.00,0,Thunderstorm,278
2012-9-4,78,64,51,54,48,43,94,63,28,29.94,29.87,29.77,10,10,0,16,3,24,0.09,1,Fog-Rain-Thunderstorm,33
2012-9-5,69,60,51,52,48,43,94,69,38,29.82,29.79,29.75,10,9,1,13,4,20,0.01,1,Rain,262
2012-9-6,68,58,48,48,46,43,87,68,40,29.91,29.88,29.82,10,10,10,13,6,23,0.00,1,,271
2012-9-7,57,50,44,48,45,41,93,78,59,29.93,29.91,29.88,10,10,2,13,5,20,0.10,3,Rain,305
2012-9-8,59,50,42,48,44,37,93,81,63,29.97,29.84,29.74,10,10,0,13,4,18,0.00,3,Fog-Rain,287
2012-9-9,62,50,37,46,40,36,93,69,37,30.14,30.09,29.97,10,10,10,13,7,20,0.00,0,,308
2012-9-10,66,50,35,52,45,34,93,73,52,30.10,29.98,29.86,10,9,1,15,3,21,0.00,0,,171
2012-9-11,68,60,53,54,51,48,88,69,56,29.86,29.80,29.75,10,10,10,13,5,22,0.00,0,,182
2012-9-12,64,55,46,54,35,25,77,45,22,30.13,29.98,29.78,10,10,10,15,7,25,0.00,0,Rain,242
2012-9-13,57,47,37,43,37,30,93,65,50,30.30,30.21,30.12,10,10,10,10,5,17,0.00,1,,294
2012-9-14,57,46,33,43,38,30,93,72,44,30.34,30.31,30.27,10,10,10,14,5,22,0.00,3,,318
2012-9-15,59,44,30,45,36,28,93,70,45,30.32,30.18,29.97,10,10,2,9,2,,0.00,0,,99
2012-9-16,73,55,37,52,42,34,93,64,33,29.96,29.89,29.85,10,9,0,13,5,20,0.00,2,Fog-Rain,335
2012-9-17,51,42,32,43,35,28,87,74,50,29.96,29.93,29.89,10,10,7,15,7,22,0.06,4,Rain,332
2012-9-18,50,39,28,34,28,19,93,69,30,29.94,29.92,29.87,10,10,4,16,6,24,0.02,3,Rain,316
2012-9-19,57,42,28,46,38,25,93,77,51,29.86,29.63,29.53,10,10,4,14,6,23,0.19,4,Rain,194
2012-9-20,51,46,41,41,36,30,87,71,44,29.78,29.68,29.55,10,10,4,14,8,29,0.04,5,Rain,286
2012-9-21,48,42,37,37,35,30,93,79,50,29.76,29.74,29.72,10,10,5,14,4,22,0.16,5,Rain-Thunderstorm,292
2012-9-22,44,38,33,36,29,25,93,73,53,30.11,30.00,29.77,10,10,2,16,10,25,0.01,4,Rain-Thunderstorm,317
2012-9-23,48,40,33,30,28,27,81,63,46,30.17,30.11,29.98,10,10,10,14,7,21,0.00,2,,289
2012-9-24,60,48,35,34,29,25,75,49,31,29.96,29.73,29.58,10,10,10,17,8,29,0.00,1,,271
2012-9-25,48,37,26,34,29,25,93,72,50,29.97,29.90,29.84,10,10,10,10,4,17,0.00,3,,325
2012-9-26,53,42,28,36,31,25,93,69,38,30.21,30.10,29.97,10,10,10,9,3,,0.00,4,,309
2012-9-27,57,42,26,37,30,21,93,66,38,30.27,30.22,30.17,10,10,10,10,4,,0.00,0,,230
2012-9-28,69,51,33,39,34,27,81,50,27,30.18,30.14,30.09,10,10,10,8,4,,0.00,0,,301
2012-9-29,60,46,33,41,36,30,93,69,34,30.17,30.13,30.10,10,10,0,7,5,,0.00,0,Fog,33
2012-9-30,57,44,30,45,35,27,93,76,51,30.10,30.02,29.89,10,8,0,8,1,,0.00,2,Fog,151